Regional Weather Roundup
Issued by NWS Charleston, SC

Current Version | Previous Version | Graphics & Text | Print | Product List | Glossary On
Versions: 1 2 3 4 5 6 7 8 9 10 11 12 13 14 15 16 17 18 19 20 21 22 23 24 25 26 27 28 29 30 31 32 33 34 35 36 37 38 39 40 41 42 43 44 45 46 47 48 49 50
000
ASUS42 KCHS 261627
RWRCHS

REGIONAL WEATHER ROUNDUP
NATIONAL WEATHER SERVICE CHARLESTON SC
1200 PM EDT THU MAR 26 2015

NOTE: "FAIR" INDICATES FEW OR NO CLOUDS BELOW 12,000 FEET WITH NO
SIGNIFICANT WEATHER AND/OR OBSTRUCTIONS TO VISIBILITY.

NOT ALL STATIONS ARE QUALITY CONTROLLED BY THE NATIONAL
WEATHER SERVICE. USE DATA WITH CAUTION...ESPECIALLY
DEWPOINT OBSERVATIONS.

SCZ027-030-031-034>040-042>050-261700-
...SOUTHEAST SOUTH CAROLINA...

CITY           SKY/WX    TMP DP  RH WIND       PRES   REMARKS
N CHARLESTON   PTSUNNY   73  61  65 SW9       29.99F
WATERFRONT PRK NOT AVBL
MOUNT PLEASANT FAIR      73  63  68 SW14      29.98F
PINOPOLIS        N/A     70  63  78 CALM      29.91F
MONCKS CORNER  CLOUDY    75  61  60 W6        29.97F
SUMMERVILLE    NOT AVBL
BEAUFORT MCAS  CLOUDY    76  63  64 S8        29.99F
BEAUFORT ARPT  FAIR      73  66  78 SW7       29.98F
HILTON HEAD IS MOSUNNY   73  64  73 SW12      30.00F
WALTERBORO     CLOUDY    73  61  64 W5        29.98F
ALLENDALE      FAIR      73  63  68 SW5       29.95F

...SOUTHERN MIDLANDS AND PEE DEE...

CITY           SKY/WX    TMP DP  RH WIND       PRES   REMARKS
GEORGETOWN     NOT AVBL
KINGSTREE      NOT AVBL
ORANGEBURG     CLOUDY    71  60  68 SW12      29.97F
BARNWELL       FAIR      73  63  68 CALM      29.97F
AIKEN          CLOUDY    70  57  64 W9        29.99F
MANNING        CLOUDY    70  59  68 SW13      29.97F
COLUMBIA       MOSUNNY   73  59  61 W13       29.94F
SUMTER         CLOUDY    72  61  68 SW9       29.93F
FLORENCE       PTSUNNY   73  59  61 W9        29.95F
MYRTLE BEACH   PTSUNNY  N/A N/A N/A SW15      30.01F
N MYRTLE BEACH MOSUNNY   72  60  66 W9        29.98F

$$

GAZ063-065-086>088-099>101-113>116-118-119-134>141-150-261700-
...SOUTHEAST GEORGIA...

CITY           SKY/WX    TMP DP  RH WIND       PRES   REMARKS
SAVANNAH ARPT  PTSUNNY   76  59  55 SW8       29.99F
HUNTER AAF     MOSUNNY   76  64  67 SW8       29.97F
FORT STEWART   MOSUNNY   76  61  59 SW3       29.97F
STATESBORO     MOSUNNY   76  60  58 SW10      29.97F
SYLVANIA       SUNNY     74  61  64 W5        29.98F
CLAXTON        FAIR      75  61  60 SW5       29.98F

...CSRA...CENTRAL AND FAR SOUTHEAST GEORGIA...

CITY           SKY/WX    TMP DP  RH WIND       PRES   REMARKS
THOMSON        MOSUNNY   72  63  72 SW6       29.99F
AUGUSTA-BUSH   PTSUNNY   73  59  61 VRB6      29.96F
AUGUSTA-DANIEL PTSUNNY   73  59  61 SW8       29.97F
SWAINSBORO     PTSUNNY   79  45  29 SW12      29.97F
VIDALIA        MOSUNNY   77  59  53 S9        29.98F
EASTMAN        FAIR      75  62  63 SW7       30.00F
HAZLEHURST     PTSUNNY   73  61  64 CALM      29.98S
ALMA           MOSUNNY   75  60  59 S9        29.98F
WAYCROSS       PTSUNNY   79  64  60 S10       29.99F
JESUP          FAIR      77  64  65 S7        30.00F
BAXLEY         FAIR      77  61  57 SW7       29.98F
BRUNSWICK      PTSUNNY   73  57  56 S10       30.01F
SAINT SIMONS   PTSUNNY   71  64  78 S7        30.02F

$$

SCZ027-028-034-036>038-045-046-048>050-GAZ119-141-261700-
...LAKE AND SUPPLEMENTAL COASTAL OBSERVATIONS...

STATION/POSITION TIME  TEMP    WIND        PRES    WAVE   SWELL
                       AIR SEA DIR/SP/G            HT/PER HT/PER/DIR
                 (UTC) (F)     (DEG/KT/KT) (MB)    (FT/S) (FT/S/D)
UPR LAKE MARION  NOT AVBL
WINYAH BAY       1545   71     250/  7     1015.0S
LAKE MURRAY      1600   68     240/  9/ 13 1013.5F
ACE BASIN NERRS  1500   67     230/  3     1016.0S
FORT PULASKI     1600   70 61  200/  7/ 11 1016.3F
SAPELO ISLAND    1600   74     170/  7     1016.0F

$$

ANZ835-935-AMZ111-154-330-350-352-354-370-450-454-472-261700-
...C-MAN AND BUOY OBSERVATIONS...

STATION/POSITION TIME  TEMP    WIND        PRES    WAVE   SWELL
                       AIR SEA DIR/SP/G            HT/PER HT/PER/DIR
                 (UTC) (F)     (DEG/KT/KT) (MB)    (FT/S) (FT/S/D)
BUOY 41004       1550   67 71  230/ 10/ 14 1015.8F   6/ 8   5/ 8
BUOY 41008       1550   61 62  190/  6/  6 1016.4F   3/ 8   3/ 80/ 8
FOLLY BEACH CMAN 1600   61     210/  8/  9 1015.8F
CAPERS NEARSHORE 1500   62     200/  8/ 10   N/A
FRIPP NEARSHORE  1500   61     230/  8/ 10 1016.4F


STATION/POSITION TIME  TEMP    WIND        PRES    WAVE   SWELL
                       AIR SEA DIR/SP/G            HT/PER HT/PER/DIR
                 (UTC) (F)     (DEG/KT/KT) (MB)    (FT/S) (FT/S/D)
5E ST. MARYS GA  1521      64                N/A     3/ 8
FRYING PAN BUOY  1550   69 69  240/ 17/ 19 1016.0F   8/ 7   7/140/ 7
BUOY 41025       NOT AVBL
CAPE LOOKOUT NC  1600   64     160/ 22/ 25 1015.6R
BUOY 41002       1550   70 69  170/ 23/ 29 1020.0F   7/ 7   2/160/14
BUOY 41010       1520   76 76  170/ 12/ 14 1018.6F
ST AUGUSTINE FL  1600   64 64  350/  3/  3 1017.5F


$$



USA.gov is the U.S. government's official web portal to all federal, state and local government web resources and services.